Vorticity
8 6 4 3 4 5 6 7 8 8 8 8 6 5 5 6 6 7 7 7 7 7 8 9 9 8 8 8 8 8 7 7 6 5 4 4 4 4 5 5 6 6 5 4 3 4 4 4 4 4 4 4 3 3 3 2 2 2 2 3 3 3 3 4 4 4 3 4 4
10 7 4 3 4 4 5 6 7 7 7 7 6 6 6 7 7 7 6 7 7 7 7 7 8 8 8 8 8 7 7 6 5 5 4 4 4 4 4 5 5 4 4 3 3 4 4 5 5 4 4 3 3 3 3 3 3 3 3 3 3 3 3 3 3 3 3 3 4
10 8 6 4 4 4 5 6 7 7 7 7 6 6 6 7 7 7 7 6 6 6 6 7 7 8 8 7 7 7 7 6 5 4 4 3 3 4 4 4 3 3 3 3 4 4 5 5 5 4 4 3 3 3 3 2 3 3 3 3 3 3 3 3 3 3 3 3 4
11 10 8 6 5 5 5 6 6 7 7 7 6 6 6 7 8 7 7 5 5 5 6 6 7 7 7 7 7 7 7 6 5 4 3 3 3 4 4 3 2 2 2 3 5 5 6 5 5 4 4 3 3 3 3 2 3 3 3 2 2 3 3 3 3 3 3 3 4
11 11 10 9 8 6 6 6 6 7 7 6 6 6 6 7 7 7 6 6 5 5 5 6 6 7 7 7 7 6 6 6 5 4 4 3 4 4 4 3 2 2 3 5 6 6 6 6 5 4 4 3 3 3 3 2 3 3 2 2 2 2 2 3 3 3 3 3 4
10 11 11 11 10 8 7 7 7 7 6 6 6 6 6 6 7 7 7 6 5 4 4 4 5 6 6 6 6 6 6 5 5 4 4 5 5 5 4 3 2 3 4 6 7 7 6 5 4 4 4 3 3 3 3 3 3 3 2 2 2 2 2 3 3 3 3 3 4
9 10 11 12 11 10 9 8 8 7 7 7 6 6 6 6 7 7 7 6 4 4 3 3 4 4 5 6 6 6 6 6 5 5 6 6 6 5 4 2 2 4 6 8 8 7 6 5 4 4 3 4 3 3 3 4 3 3 2 2 2 2 2 3 2 2 3 3 4
9 10 11 12 12 12 11 10 10 9 8 8 7 7 6 6 7 7 7 6 5 4 3 2 3 3 4 5 6 6 6 6 6 6 7 6 5 2 1 0 2 5 8 9 8 7 5 5 5 4 4 4 4 4 3 3 3 3 2 2 2 2 2 2 2 2 3 4 5
9 10 11 12 13 13 13 12 12 11 10 9 8 7 7 6 6 6 6 7 6 4 3 2 2 3 4 5 6 6 6 6 7 7 6 4 0 -2 -2 0 5 8 10 10 8 6 4 4 5 4 4 4 4 4 3 3 3 2 2 2 2 2 2 2 2 2 3 4 6
10 11 12 13 14 14 14 14 13 12 11 9 8 8 7 6 6 7 7 7 6 5 4 3 3 3 4 5 6 6 7 8 8 6 3 -0 -4 -4 -1 4 9 12 11 9 6 5 4 5 5 5 5 4 4 3 3 2 2 2 2 2 2 2 2 2 2 3 4 5 7
12 12 13 14 15 15 14 14 13 12 11 10 9 8 7 7 7 7 7 6 6 6 5 4 4 4 5 6 7 8 9 9 7 3 -2 -6 -7 -3 3 10 12 12 10 6 4 4 5 5 5 5 4 4 4 3 2 2 2 2 2 2 2 2 2 2 2 3 4 6 9
12 13 14 14 14 14 14 13 12 11 10 10 9 8 8 8 7 7 7 7 7 6 5 5 5 5 6 8 10 10 9 7 2 -3 -7 -8 -2 4 10 13 12 10 6 4 4 5 6 6 5 4 3 3 2 2 2 1 1 1 1 1 2 2 2 2 2 4 5 7 10
13 13 14 14 14 14 14 13 13 12 11 10 10 9 9 8 8 7 7 6 6 6 5 5 6 7 8 9 9 7 4 -0 -5 -7 -5 1 7 11 12 12 10 7 4 4 4 5 6 5 4 4 3 2 2 2 2 1 1 1 1 1 2 2 2 2 3 4 6 9 12
13 13 14 14 15 15 16 16 15 15 14 13 12 11 10 9 8 7 6 6 5 5 6 7 8 8 8 6 3 -1 -4 -6 -6 -1 4 10 11 12 12 10 7 5 4 4 5 5 5 4 4 3 2 1 1 1 1 2 1 1 1 2 2 2 2 3 3 5 7 10 14
14 15 15 16 17 17 18 18 18 17 16 15 13 12 11 10 8 7 6 6 6 7 8 9 8 5 2 -1 -4 -5 -5 -2 2 6 9 10 12 12 12 9 7 5 4 5 5 5 4 4 3 2 2 2 1 1 1 2 2 2 2 2 2 2 2 3 4 6 9 12 14
20 21 22 22 22 22 22 21 20 20 19 17 15 13 11 10 8 7 6 7 7 8 7 5 2 -1 -3 -4 -3 -1 2 5 8 10 11 12 13 12 11 8 6 5 5 4 4 4 4 3 2 2 2 2 2 2 1 1 1 2 2 2 2 3 3 4 5 8 11 14 15
27 27 27 27 27 26 26 25 24 23 22 20 18 16 13 11 9 8 6 6 5 3 2 -1 -2 -2 -1 0 3 6 8 10 11 12 13 14 13 11 9 7 6 5 5 5 4 3 3 3 3 3 3 2 2 2 2 1 1 2 2 2 3 3 4 5 7 9 12 15 14
21 20 19 20 21 22 22 23 23 23 23 23 21 19 16 13 11 9 7 5 3 2 1 1 1 3 4 6 8 10 11 12 12 12 12 11 10 9 8 7 7 6 5 5 4 4 3 3 3 3 3 3 2 2 2 2 2 2 2 2 3 4 6 6 9 11 14 15 13
8 9 9 10 10 11 12 14 15 16 17 18 17 16 14 12 10 9 7 5 4 4 4 4 5 6 8 8 9 10 10 10 10 10 10 9 8 8 8 8 7 7 6 5 5 4 4 3 3 3 3 3 3 2 2 2 2 2 2 3 4 6 7 8 11 13 15 14 11
4 6 6 6 6 6 6 7 8 9 10 11 11 11 10 9 8 7 7 6 6 6 5 5 6 7 8 9 8 8 8 8 8 8 8 7 7 8 8 8 8 7 7 6 5 5 4 4 4 4 3 3 3 2 2 2 2 3 4 5 6 7 8 10 13 14 14 12 9
5 6 6 6 6 5 4 5 6 7 8 9 9 9 8 7 7 6 6 6 5 6 6 6 6 7 7 7 7 7 7 7 8 7 7 7 8 8 9 9 9 8 7 7 6 6 5 5 4 4 4 4 4 3 3 3 3 4 5 7 8 9 10 12 14 14 12 10 7
6 7 8 8 8 7 6 4 4 4 5 6 6 6 5 5 4 4 3 3 3 4 4 4 4 5 5 6 7 8 8 9 10 10 9 9 9 9 9 9 9 9 8 8 8 7 7 6 6 5 5 4 4 4 4 4 4 5 7 8 9 10 11 13 13 12 10 7 5
7 8 8 9 9 9 8 6 5 4 3 3 3 2 2 2 2 2 2 2 3 3 4 5 6 7 9 10 11 12 12 13 13 13 12 12 11 11 10 10 10 10 10 10 9 8 8 7 6 6 6 5 4 4 4 5 6 7 8 8 9 10 12 13 12 9 7 5 4
6 6 6 6 7 7 7 7 6 6 6 6 6 6 6 7 7 7 8 8 9 9 10 11 12 12 13 14 15 15 16 15 15 14 14 14 13 12 12 12 11 11 11 10 10 9 8 8 7 6 6 6 5 5 5 6 7 8 8 9 10 11 12 12 9 7 5 4 4
5 4 4 4 5 5 6 6 7 8 8 9 10 11 11 12 12 12 12 13 13 13 13 13 14 14 14 14 15 16 16 16 15 15 14 14 14 13 13 13 12 12 11 10 10 9 9 8 8 7 6 6 6 6 6 8 8 9 9 10 11 12 11 9 7 5 4 4 4
6 6 6 7 7 8 8 9 9 10 10 11 12 12 13 13 13 13 13 13 13 13 13 13 13 14 14 14 14 15 15 15 15 15 15 14 14 14 14 13 13 12 11 10 10 9 8 8 8 7 6 6 6 6 7 8 9 10 10 12 12 10 8 6 5 4 4 4 3
8 8 9 9 9 10 10 10 10 10 11 11 12 13 13 13 13 14 14 14 14 14 14 14 14 15 15 15 15 15 15 15 15 15 15 14 14 13 13 13 12 12 11 10 9 8 8 8 7 7 6 6 6 7 8 9 10 11 12 12 10 8 6 4 3 3 2 2 1
7 7 7 7 8 8 8 8 8 9 9 10 10 11 12 13 14 15 15 16 15 15 15 16 16 16 16 15 15 15 15 14 14 14 14 14 14 13 13 12 12 11 10 9 9 8 8 8 7 6 6 6 7 8 8 9 10 11 10 9 6 4 3 2 2 2 1 0 -0
4 4 5 5 6 6 7 7 8 8 8 8 9 10 11 12 13 14 15 16 16 16 16 16 16 16 15 15 15 14 14 14 14 14 13 13 13 13 13 12 11 10 10 9 9 9 9 8 7 6 6 6 7 8 9 10 11 10 8 5 3 1 1 1 1 1 0 -1 -1
3 3 4 4 5 6 7 8 8 8 8 8 9 9 10 10 12 13 14 15 16 16 16 14 14 15 15 14 14 14 14 14 14 14 13 13 13 13 12 11 10 10 9 9 9 10 9 8 7 6 6 7 9 10 11 11 9 6 4 2 1 2 2 2 2 2 1 1 1
2 2 3 4 6 8 9 10 10 10 9 9 9 9 9 10 11 12 14 14 15 15 14 14 15 15 14 14 13 13 13 13 14 14 14 14 13 12 11 10 10 10 10 10 10 10 9 8 7 7 8 9 11 11 10 8 5 3 1 1 2 3 4 4 3 2 2 3 4
2 3 4 6 7 9 10 11 11 11 11 10 10 9 9 10 11 12 12 13 13 14 14 15 15 15 14 13 13 13 13 13 14 14 14 13 12 11 10 10 10 10 10 10 10 10 9 8 7 8 9 10 10 9 6 4 2 2 2 3 4 4 3 2 2 3 3 4 5
4 5 6 7 8 10 11 12 12 12 12 12 10 10 9 10 10 11 12 13 13 13 14 15 15 14 14 14 14 14 14 14 14 14 13 13 11 10 10 10 11 12 11 11 11 10 8 8 8 9 9 8 6 4 3 3 3 4 5 5 4 3 2 2 2 3 4 5 5
5 6 8 9 10 11 13 13 13 13 13 12 11 10 10 10 10 11 12 12 13 13 13 14 14 14 15 15 15 15 15 15 14 13 12 12 11 11 11 11 12 12 12 12 10 9 8 8 8 7 6 4 3 3 3 4 6 6 5 4 3 2 2 3 4 4 4 4 4
7 8 9 10 11 13 13 14 14 14 13 13 12 11 10 10 10 11 11 11 11 12 13 14 14 14 15 15 16 16 16 16 14 13 12 11 12 12 12 12 12 12 12 11 9 8 7 7 6 5 4 3 4 4 5 6 5 4 3 2 2 2 3 4 4 4 4 4 3
9 10 10 11 12 13 14 14 14 14 13 13 12 11 11 10 11 10 10 10 10 11 12 13 13 14 15 16 16 16 16 15 14 13 12 12 13 14 14 13 12 12 11 10 8 7 7 6 5 4 4 4 5 5 5 4 2 2 1 1 2 3 3 4 4 3 3 3 3
10 11 12 12 13 13 14 14 14 13 13 13 12 12 11 10 10 10 10 10 10 11 11 11 12 13 14 14 15 16 16 15 14 13 13 14 16 16 16 14 13 12 11 10 8 7 6 5 5 5 5 5 4 4 2 2 1 2 2 3 3 4 3 3 3 2 2 2 2
11 12 12 13 13 13 13 13 13 13 13 12 12 12 12 11 11 11 11 12 12 12 11 11 11 11 11 12 13 14 14 14 14 14 15 16 17 16 15 13 12 11 10 8 7 6 5 4 4 4 4 3 3 2 2 2 2 3 4 4 4 4 3 3 2 2 2 3 4
12 12 13 13 13 13 13 13 13 13 12 12 12 12 12 13 13 12 12 13 14 13 12 11 10 10 10 10 11 13 14 15 15 15 16 16 15 14 13 12 10 9 7 6 5 4 4 4 4 3 2 2 2 2 3 3 4 4 4 4 4 3 3 2 2 2 3 4 5
12 13 13 13 13 12 12 12 12 12 12 12 12 13 13 14 14 13 13 14 15 15 14 12 10 9 9 10 10 11 12 14 15 16 15 14 13 12 11 10 7 6 5 4 4 4 3 3 3 2 2 2 3 3 4 4 4 4 4 3 3 3 2 2 3 3 4 6 7
12 12 13 12 12 12 12 12 12 12 12 12 13 14 14 15 15 15 15 15 16 15 14 12 10 10 9 10 10 10 10 12 14 14 14 13 12 11 9 8 6 4 4 4 4 4 3 3 3 3 3 4 4 4 4 4 4 3 3 3 3 3 3 4 4 5 6 8 9
Height
3098 3099 3100 3100 3101 3102 3103 3104 3105 3106 3107 3107 3107 3107 3108 3109 3109 3110 3110 3111 3111 3111 3111 3111 3111 3111 3111 3111 3111 3111 3111 3111 3111 3111 3111 3111 3111 3111 3111 3111 3111 3111 3111 3110 3110 3109 3109 3109 3108 3107 3107 3106 3106 3105 3104 3104 3103 3102 3102 3101 3100 3099 3098 3097 3096 3095 3094 3093 3092
3097 3097 3098 3099 3100 3101 3102 3103 3104 3104 3105 3105 3106 3106 3107 3107 3108 3108 3109 3109 3109 3109 3109 3109 3109 3109 3109 3109 3109 3109 3109 3109 3109 3109 3109 3109 3109 3109 3109 3109 3109 3109 3109 3108 3108 3107 3107 3107 3106 3106 3105 3104 3104 3103 3102 3102 3101 3101 3100 3099 3098 3097 3096 3095 3094 3093 3092 3091 3090
3095 3096 3097 3097 3098 3099 3100 3101 3102 3103 3103 3104 3104 3105 3105 3106 3106 3107 3107 3108 3108 3108 3108 3108 3108 3108 3108 3108 3108 3108 3108 3108 3108 3108 3108 3108 3108 3107 3107 3107 3107 3107 3107 3107 3106 3106 3105 3105 3104 3104 3103 3102 3102 3101 3101 3100 3099 3098 3098 3097 3096 3095 3094 3093 3092 3091 3090 3089 3088
3093 3094 3095 3096 3097 3097 3098 3099 3100 3101 3102 3102 3102 3103 3103 3104 3105 3105 3106 3106 3106 3106 3106 3106 3106 3106 3106 3106 3106 3106 3106 3106 3106 3106 3106 3106 3106 3106 3106 3106 3105 3105 3105 3105 3104 3104 3103 3103 3102 3102 3101 3101 3100 3099 3099 3098 3097 3097 3096 3095 3094 3093 3092 3091 3090 3089 3088 3087 3086
3091 3092 3093 3094 3095 3096 3097 3098 3099 3099 3100 3100 3101 3101 3102 3102 3103 3103 3104 3104 3104 3105 3105 3105 3105 3105 3105 3105 3105 3105 3104 3104 3104 3104 3104 3104 3104 3104 3104 3104 3104 3103 3103 3103 3102 3102 3101 3101 3101 3100 3099 3099 3098 3097 3097 3096 3095 3094 3093 3092 3092 3091 3090 3088 3087 3087 3086 3084 3083
3089 3090 3092 3092 3094 3094 3095 3096 3097 3097 3098 3099 3099 3099 3100 3100 3101 3102 3102 3102 3103 3103 3103 3103 3103 3103 3103 3103 3103 3103 3103 3102 3102 3102 3102 3102 3102 3102 3102 3102 3102 3102 3101 3101 3100 3100 3099 3099 3098 3098 3097 3097 3096 3095 3094 3093 3093 3092 3091 3090 3089 3088 3087 3086 3085 3084 3083 3082 3081
3088 3089 3090 3091 3092 3093 3094 3094 3095 3096 3096 3097 3097 3097 3098 3099 3099 3100 3100 3101 3101 3102 3102 3102 3102 3102 3102 3102 3102 3101 3101 3101 3101 3101 3101 3101 3101 3101 3101 3100 3100 3100 3099 3099 3098 3098 3097 3097 3097 3096 3095 3094 3094 3093 3092 3091 3091 3090 3089 3088 3087 3086 3085 3084 3082 3082 3081 3080 3078
3086 3087 3088 3089 3090 3091 3092 3093 3093 3094 3094 3095 3095 3096 3096 3097 3097 3098 3099 3099 3099 3100 3100 3100 3100 3100 3100 3100 3100 3100 3099 3099 3099 3099 3099 3099 3099 3099 3099 3099 3098 3098 3097 3097 3097 3096 3095 3095 3094 3094 3093 3092 3091 3091 3090 3089 3088 3087 3086 3085 3084 3083 3082 3081 3080 3079 3078 3077 3076
3085 3086 3087 3088 3089 3089 3090 3091 3092 3092 3092 3093 3093 3094 3094 3095 3095 3096 3097 3097 3098 3098 3098 3098 3099 3099 3098 3098 3098 3098 3098 3097 3097 3097 3097 3097 3097 3097 3097 3097 3096 3096 3095 3095 3094 3094 3093 3092 3092 3091 3091 3090 3089 3088 3087 3087 3086 3084 3083 3082 3081 3080 3079 3078 3077 3077 3076 3075 3073
3083 3084 3085 3086 3087 3088 3088 3089 3090 3090 3090 3091 3091 3092 3092 3093 3094 3094 3095 3095 3096 3096 3097 3097 3097 3097 3097 3097 3097 3096 3096 3096 3096 3096 3096 3096 3096 3095 3095 3094 3094 3093 3093 3092 3092 3091 3091 3090 3090 3089 3088 3087 3087 3086 3085 3084 3083 3082 3081 3080 3079 3077 3077 3076 3075 3074 3073 3072 3071
3082 3083 3083 3084 3085 3086 3087 3087 3087 3088 3088 3088 3089 3090 3090 3091 3092 3092 3093 3093 3094 3094 3095 3095 3095 3095 3095 3095 3095 3095 3094 3094 3094 3094 3094 3094 3093 3092 3092 3092 3091 3091 3091 3090 3090 3089 3088 3088 3087 3087 3086 3085 3084 3083 3082 3082 3081 3079 3078 3077 3076 3075 3074 3072 3072 3071 3070 3069 3068
3081 3081 3082 3082 3083 3084 3084 3085 3085 3086 3086 3087 3087 3088 3088 3089 3090 3091 3091 3092 3092 3093 3093 3093 3093 3093 3093 3093 3093 3093 3093 3092 3092 3092 3092 3091 3090 3090 3089 3089 3089 3089 3088 3088 3087 3087 3086 3085 3085 3084 3083 3082 3082 3081 3080 3079 3078 3077 3076 3074 3073 3072 3071 3070 3069 3068 3067 3066 3065
3079 3080 3081 3081 3082 3082 3082 3083 3083 3084 3084 3085 3085 3086 3087 3087 3088 3089 3089 3090 3090 3091 3091 3091 3091 3091 3091 3091 3091 3091 3091 3090 3090 3089 3088 3088 3087 3087 3087 3087 3086 3086 3086 3085 3084 3084 3083 3083 3082 3081 3080 3080 3079 3078 3077 3076 3075 3074 3073 3072 3070 3069 3068 3067 3067 3066 3065 3063 3062
3078 3079 3079 3080 3080 3081 3081 3081 3082 3082 3082 3083 3084 3084 3085 3086 3086 3087 3087 3088 3088 3089 3089 3089 3089 3089 3089 3089 3089 3088 3088 3087 3087 3086 3086 3085 3085 3085 3084 3084 3084 3083 3083 3082 3082 3082 3081 3080 3079 3079 3078 3077 3076 3076 3075 3073 3072 3071 3070 3069 3068 3067 3066 3065 3064 3063 3062 3061 3060
3077 3077 3078 3078 3079 3079 3079 3080 3080 3080 3081 3081 3082 3082 3083 3083 3084 3085 3085 3086 3086 3087 3087 3087 3087 3087 3087 3086 3086 3086 3085 3085 3084 3083 3083 3082 3082 3082 3082 3082 3081 3081 3080 3080 3079 3079 3078 3078 3077 3076 3075 3074 3073 3073 3072 3071 3070 3068 3067 3066 3065 3064 3063 3062 3062 3061 3059 3058 3057
3076 3076 3077 3077 3077 3077 3078 3078 3078 3079 3079 3080 3080 3081 3081 3082 3082 3083 3083 3084 3084 3084 3085 3085 3084 3084 3084 3083 3083 3083 3082 3082 3081 3081 3080 3080 3080 3079 3079 3079 3079 3078 3078 3077 3077 3077 3076 3075 3074 3073 3072 3072 3071 3070 3069 3068 3067 3065 3064 3063 3062 3061 3061 3060 3059 3058 3057 3056 3054
3075 3075 3075 3075 3076 3076 3076 3077 3077 3077 3077 3078 3079 3079 3080 3080 3081 3081 3082 3082 3082 3082 3082 3082 3082 3082 3081 3081 3080 3080 3079 3079 3078 3078 3077 3077 3077 3077 3077 3077 3076 3076 3076 3075 3075 3074 3073 3072 3071 3071 3070 3069 3068 3067 3066 3065 3063 3062 3061 3060 3059 3058 3058 3057 3056 3055 3054 3053 3052
3073 3074 3074 3074 3074 3075 3075 3075 3075 3076 3076 3077 3077 3078 3078 3079 3079 3080 3080 3080 3080 3080 3080 3080 3080 3079 3078 3078 3077 3077 3076 3076 3075 3075 3075 3075 3075 3075 3075 3074 3074 3073 3073 3072 3072 3071 3070 3069 3068 3067 3067 3066 3065 3064 3063 3062 3060 3059 3058 3057 3056 3056 3055 3054 3053 3052 3051 3050 3049
3072 3073 3073 3073 3073 3073 3074 3074 3074 3075 3075 3075 3076 3077 3077 3077 3078 3078 3078 3078 3078 3078 3078 3077 3077 3076 3075 3075 3074 3073 3073 3073 3072 3072 3072 3072 3072 3072 3072 3072 3071 3070 3070 3070 3069 3068 3067 3067 3066 3065 3064 3063 3062 3061 3060 3058 3057 3056 3055 3054 3053 3053 3052 3051 3050 3049 3048 3047 3046
3071 3072 3072 3072 3072 3072 3072 3073 3073 3073 3074 3074 3075 3075 3075 3076 3076 3076 3076 3076 3076 3075 3075 3074 3073 3072 3072 3071 3071 3070 3070 3070 3070 3069 3069 3069 3069 3069 3069 3069 3068 3067 3067 3067 3066 3065 3065 3064 3063 3062 3061 3060 3059 3058 3057 3055 3054 3053 3052 3051 3050 3050 3049 3048 3047 3046 3045 3044 3042
3070 3071 3071 3071 3071 3071 3071 3072 3072 3072 3072 3073 3073 3073 3073 3073 3073 3073 3073 3073 3072 3072 3071 3070 3070 3069 3068 3068 3068 3068 3067 3067 3067 3067 3066 3066 3066 3066 3066 3066 3065 3064 3064 3063 3063 3062 3062 3061 3060 3059 3058 3057 3056 3055 3053 3052 3051 3050 3049 3048 3047 3047 3046 3045 3044 3043 3042 3041 3039
3069 3069 3070 3070 3070 3070 3070 3070 3071 3071 3071 3071 3071 3071 3071 3071 3071 3071 3070 3070 3069 3068 3068 3067 3067 3067 3066 3066 3065 3065 3065 3064 3064 3063 3063 3063 3063 3063 3063 3062 3062 3061 3061 3061 3060 3059 3059 3058 3057 3056 3055 3054 3053 3052 3050 3049 3048 3047 3046 3046 3045 3044 3043 3042 3041 3040 3039 3037 3036
3068 3068 3069 3069 3069 3069 3069 3069 3069 3069 3069 3069 3069 3069 3069 3068 3068 3068 3067 3067 3067 3066 3066 3065 3065 3064 3064 3063 3063 3062 3062 3061 3061 3060 3060 3060 3060 3060 3060 3059 3059 3058 3058 3057 3057 3056 3056 3055 3054 3053 3052 3051 3049 3048 3047 3046 3045 3044 3043 3043 3042 3041 3040 3039 3038 3037 3036 3034 3033
3067 3067 3067 3067 3067 3067 3067 3067 3067 3067 3067 3067 3067 3067 3067 3066 3066 3066 3065 3065 3064 3064 3063 3062 3062 3061 3061 3060 3060 3059 3059 3058 3058 3057 3057 3057 3057 3057 3057 3057 3056 3056 3055 3054 3054 3053 3052 3052 3051 3049 3048 3047 3046 3045 3043 3043 3042 3041 3041 3040 3039 3038 3037 3036 3035 3034 3032 3031 3029
3066 3066 3066 3066 3066 3066 3066 3066 3065 3065 3065 3065 3065 3065 3064 3064 3063 3063 3062 3062 3061 3060 3060 3059 3059 3058 3057 3057 3057 3056 3056 3055 3055 3055 3054 3054 3054 3054 3054 3054 3053 3053 3052 3051 3051 3050 3049 3048 3047 3046 3045 3044 3042 3042 3041 3040 3039 3038 3037 3037 3035 3034 3033 3032 3032 3030 3029 3027 3026
3064 3064 3064 3064 3064 3064 3064 3064 3064 3063 3063 3063 3063 3062 3062 3061 3061 3060 3059 3058 3058 3057 3057 3056 3056 3055 3055 3054 3054 3053 3053 3052 3052 3052 3052 3051 3051 3051 3051 3051 3050 3050 3049 3048 3047 3047 3046 3045 3044 3042 3042 3040 3039 3038 3038 3037 3036 3035 3034 3033 3032 3031 3030 3029 3028 3027 3026 3024 3023
3063 3063 3063 3063 3063 3062 3062 3062 3062 3062 3061 3061 3060 3060 3059 3058 3058 3057 3057 3056 3055 3054 3054 3053 3053 3052 3052 3052 3051 3050 3050 3049 3049 3049 3048 3048 3048 3048 3048 3047 3047 3047 3046 3045 3044 3044 3043 3042 3041 3039 3038 3037 3037 3036 3035 3034 3033 3032 3031 3030 3029 3027 3027 3025 3024 3023 3022 3021 3020
3062 3062 3062 3061 3061 3061 3060 3060 3060 3059 3059 3058 3058 3057 3057 3056 3055 3054 3054 3053 3052 3052 3051 3051 3050 3050 3049 3049 3048 3047 3047 3047 3046 3046 3046 3045 3045 3045 3045 3045 3044 3044 3043 3042 3042 3041 3040 3039 3037 3036 3035 3034 3033 3033 3032 3031 3030 3029 3028 3027 3025 3024 3023 3022 3021 3019 3018 3017 3016
3060 3060 3060 3059 3059 3059 3058 3058 3057 3057 3056 3056 3055 3055 3054 3053 3052 3052 3051 3050 3050 3049 3048 3048 3047 3047 3047 3046 3045 3045 3044 3044 3043 3043 3043 3042 3042 3042 3042 3042 3041 3041 3040 3039 3038 3038 3037 3036 3034 3033 3032 3031 3031 3030 3029 3028 3027 3026 3024 3023 3022 3021 3019 3018 3017 3016 3014 3013 3012
3058 3058 3058 3057 3057 3057 3056 3056 3055 3054 3054 3053 3053 3052 3051 3051 3050 3049 3048 3047 3047 3046 3046 3045 3045 3044 3044 3043 3042 3042 3042 3041 3041 3040 3040 3040 3039 3039 3039 3039 3038 3038 3037 3037 3036 3035 3034 3032 3031 3030 3029 3028 3027 3027 3026 3025 3024 3022 3021 3019 3018 3016 3015 3014 3012 3011 3010 3009 3007
3056 3056 3056 3055 3055 3054 3054 3053 3053 3052 3052 3051 3050 3049 3048 3048 3047 3046 3046 3045 3044 3044 3043 3043 3042 3042 3041 3041 3040 3039 3039 3038 3038 3037 3037 3037 3037 3036 3036 3036 3036 3035 3034 3034 3033 3032 3031 3030 3028 3027 3026 3025 3024 3023 3022 3021 3020 3018 3017 3015 3014 3012 3011 3009 3008 3007 3005 3004 3002
3054 3054 3054 3053 3053 3052 3052 3051 3050 3049 3049 3048 3047 3047 3046 3045 3044 3044 3043 3042 3042 3041 3041 3040 3040 3039 3038 3038 3037 3037 3036 3036 3035 3035 3035 3034 3034 3033 3033 3033 3033 3032 3032 3031 3030 3029 3028 3027 3026 3025 3024 3022 3021 3020 3019 3017 3016 3014 3013 3011 3010 3008 3007 3006 3004 3003 3001 2999 2997
3052 3052 3052 3051 3050 3050 3049 3048 3047 3047 3046 3045 3045 3044 3043 3042 3042 3041 3040 3040 3039 3039 3038 3038 3037 3037 3036 3036 3035 3034 3034 3033 3033 3032 3032 3032 3031 3031 3030 3030 3030 3030 3029 3029 3028 3027 3026 3024 3023 3022 3021 3020 3018 3017 3015 3014 3012 3010 3009 3007 3006 3005 3004 3002 3001 2999 2997 2995 2993
3050 3050 3049 3048 3048 3047 3047 3046 3045 3044 3043 3043 3042 3041 3041 3040 3039 3038 3038 3037 3037 3036 3036 3035 3035 3034 3034 3033 3032 3032 3032 3031 3031 3030 3029 3029 3028 3028 3028 3028 3027 3027 3027 3026 3025 3024 3023 3022 3021 3019 3018 3017 3015 3014 3012 3010 3009 3007 3005 3004 3002 3001 3000 2998 2997 2995 2993 2991 2989
3048 3047 3047 3046 3045 3045 3044 3043 3042 3042 3041 3040 3039 3039 3038 3037 3037 3036 3035 3035 3034 3034 3033 3033 3032 3032 3031 3031 3030 3030 3029 3029 3028 3027 3027 3026 3026 3026 3026 3025 3025 3025 3024 3024 3022 3021 3020 3019 3018 3017 3015 3014 3012 3011 3009 3007 3006 3004 3002 3001 2999 2998 2997 2995 2993 2991 2989 2987 2986
3045 3045 3044 3043 3043 3042 3041 3040 3040 3039 3038 3037 3037 3036 3036 3035 3034 3033 3033 3032 3032 3031 3031 3030 3030 3029 3029 3028 3028 3027 3027 3026 3026 3025 3024 3024 3024 3023 3023 3023 3023 3022 3022 3021 3020 3018 3017 3016 3015 3014 3012 3011 3009 3008 3006 3004 3002 3001 2999 2998 2996 2995 2993 2992 2990 2988 2986 2984 2982
3043 3042 3042 3041 3040 3039 3038 3038 3037 3036 3036 3035 3034 3034 3033 3032 3032 3031 3030 3030 3029 3029 3028 3028 3027 3027 3026 3026 3025 3025 3024 3024 3023 3022 3022 3022 3021 3021 3021 3021 3020 3020 3019 3018 3017 3016 3015 3014 3012 3011 3009 3008 3006 3005 3003 3001 2999 2997 2996 2994 2993 2991 2990 2988 2986 2984 2982 2981 2979
3040 3040 3039 3038 3037 3037 3036 3035 3034 3034 3033 3032 3032 3031 3031 3030 3029 3028 3028 3027 3027 3026 3026 3025 3025 3024 3024 3023 3023 3022 3022 3022 3021 3020 3020 3020 3019 3019 3018 3018 3018 3017 3017 3015 3014 3013 3012 3011 3009 3008 3007 3005 3003 3001 2999 2997 2996 2994 2992 2991 2989 2987 2986 2984 2982 2981 2979 2977 2976
3038 3037 3036 3036 3035 3034 3033 3033 3032 3031 3031 3030 3029 3028 3028 3027 3027 3026 3025 3024 3024 3023 3023 3023 3022 3022 3022 3021 3021 3020 3020 3019 3019 3018 3018 3017 3017 3017 3016 3016 3015 3015 3014 3013 3012 3010 3009 3008 3007 3005 3003 3002 3000 2998 2996 2994 2992 2990 2989 2987 2985 2984 2982 2981 2979 2977 2975 2973 2972
3036 3035 3034 3033 3032 3032 3031 3030 3029 3029 3028 3027 3027 3026 3025 3025 3024 3023 3023 3022 3022 3021 3021 3020 3020 3020 3019 3019 3018 3018 3017 3017 3017 3016 3016 3015 3015 3014 3014 3013 3012 3012 3011 3010 3009 3007 3006 3005 3003 3002 3000 2998 2996 2994 2992 2990 2988 2987 2985 2983 2982 2980 2978 2976 2975 2973 2972 2970 2968
3033 3032 3032 3031 3030 3029 3028 3028 3027 3026 3026 3025 3024 3024 3023 3022 3022 3021 3020 3020 3019 3019 3018 3018 3018 3017 3017 3017 3016 3016 3016 3015 3015 3014 3014 3013 3012 3012 3011 3010 3010 3009 3008 3007 3006 3004 3003 3002 3000 2998 2997 2995 2993 2991 2989 2987 2985 2983 2981 2980 2978 2976 2974 2972 2971 2969 2967 2966 2964